Chadron, NE

1:39 PM MST on February 27, 2017 (GMT -0700)
Chadron Municipal

Weather History for KCDR - January, 2014

Change the Weather History Date:

Sunday, January 26, 2014

  Actual Average Record
Temperature  
Mean Temperature 27 °F 25 °F  
Max Temperature 44 °F 39 °F 67 °F (2002)
Min Temperature 10 °F 11 °F -25 °F (1950)
Degree Days  
Heating Degree Days 38 40  
Month to date heating degree days 910 1057  
Since 1 July heating degree days 3973 3999  
Cooling Degree Days 0 0  
Month to date cooling degree days 0 0  
Year to date cooling degree days 0 0  
Moisture  
Dew Point 17 °F    
Average Humidity 62    
Maximum Humidity 75    
Minimum Humidity 49    
Precipitation  
Precipitation T in 0.01 in 0.22 in (1915)
Month to date precipitation 0.12 0.29  
Year to date precipitation 0.12 0.29  
Sea Level Pressure  
Sea Level Pressure 30.04 in    
Wind  
Wind Speed 16 mph (NNW)    
Max Wind Speed 12 mph    
Max Gust Speed 13 mph    
Visibility 10 miles    
Events      
T = Trace of Precipitation, MM = Missing Value Source: NWS Daily Summary

Daily Weather History Graph

Daily Weather History Graph

Search for Another Location

Airport or City:

Trip Planner

Search our weather history database for the weather conditions in past years. The results will help you decide how hot, cold, wet, or windy it might be!

Date:

Astronomy

Jan. 26, 2014 Rise Set
Actual Time 7:12 AM MST 4:57 PM MST
Civil Twilight 6:42 AM MST 5:28 PM MST
Nautical Twilight 6:08 AM MST 6:02 PM MST
Astronomical Twilight 5:34 AM MST 6:35 PM MST
Moon 2:53 AM MST (1/26) 12:48 PM MST (1/26)
Length of Visible Light 10h 45m
Length of Day
9h 44m
Waning Crescent, 23% of the Moon is Illuminated
Jan 26
Waning Crescent
Jan 30
New
Feb 6
First Quarter
Feb 14
Full
Feb 22
Last Quarter

Hourly Weather History & Observations

Time (MST) Temp. Windchill Dew Point Humidity Pressure Visibility Wind Dir Wind Speed Gust Speed Precip Events Conditions
12:53 AM 43.0 °F 34.8 °F 28.0 °F 56% 29.84 in 10.0 mi West 18.4 mph - N/A   Clear
1:53 AM 41.0 °F 32.5 °F 28.0 °F 60% 29.85 in 10.0 mi West 17.3 mph - N/A   Clear
2:53 AM 39.9 °F 31.1 °F 28.0 °F 63% 29.84 in 10.0 mi WNW 17.3 mph - N/A   Clear
3:53 AM 37.0 °F 29.8 °F 28.0 °F 70% 29.84 in 10.0 mi West 10.4 mph - N/A   Unknown
4:53 AM 34.0 °F 27.2 °F 27.0 °F 75% 29.85 in 10.0 mi WSW 8.1 mph - N/A   Clear
5:53 AM 36.0 °F 28.5 °F 27.0 °F 70% 29.82 in 10.0 mi WSW 10.4 mph - N/A   Clear
6:53 AM 37.9 °F 29.6 °F 27.0 °F 65% 29.81 in 10.0 mi West 13.8 mph - N/A   Clear
7:53 AM 39.9 °F 32.1 °F 27.0 °F 60% 29.80 in 10.0 mi West 13.8 mph - N/A   Overcast
8:53 AM 42.1 °F 32.8 °F 28.9 °F 60% 29.80 in 10.0 mi WNW 21.9 mph 29.9 mph N/A   Overcast
9:53 AM 41.0 °F 30.0 °F 33.1 °F 73% 29.81 in 10.0 mi WNW 28.8 mph 42.6 mph N/A   Overcast
10:53 AM 43.0 °F 33.3 °F 30.9 °F 62% 29.83 in 10.0 mi NW 25.3 mph 35.7 mph N/A   Overcast
11:53 AM 41.0 °F 29.1 °F 26.1 °F 55% 29.88 in 10.0 mi North 34.5 mph 46.0 mph N/A   Overcast
12:03 PM 30.2 °F 15.7 °F 23.0 °F 75% 29.85 in 10.0 mi NNE 27.6 mph 42.6 mph N/A   Overcast
12:53 PM 28.0 °F 16.1 °F 19.9 °F 72% 29.98 in 10.0 mi NNE 16.1 mph 32.2 mph N/A   Overcast
1:53 PM 28.0 °F 18.1 °F 19.0 °F 69% 30.06 in 10.0 mi NNE 11.5 mph - 0.00 in   Overcast
2:53 PM 25.0 °F 10.2 °F 14.0 °F 63% 30.12 in 10.0 mi NNE 21.9 mph 27.6 mph N/A   Overcast
3:53 PM 21.0 °F 5.4 °F 6.1 °F 53% 30.22 in 10.0 mi NNE 20.7 mph 29.9 mph N/A   Overcast
4:53 PM 18.0 °F 6.1 °F 6.1 °F 60% 30.27 in 10.0 mi NNE 10.4 mph 26.5 mph N/A   Overcast
5:53 PM 16.0 °F 1.7 °F 3.0 °F 57% 30.32 in 10.0 mi NNE 13.8 mph - N/A   Overcast
6:53 PM 15.1 °F -0.1 °F 1.0 °F 54% 30.35 in 10.0 mi NNE 15.0 mph - N/A   Overcast
7:53 PM 14.0 °F -0.8 °F -0.0 °F 54% 30.37 in 10.0 mi North 13.8 mph - N/A   Overcast
8:53 PM 12.9 °F 0.7 °F -0.0 °F 56% 30.37 in 10.0 mi NNE 9.2 mph - N/A   Mostly Cloudy
9:53 PM 12.9 °F 1.6 °F -2.0 °F 51% 30.38 in 10.0 mi NNE 8.1 mph - N/A   Partly Cloudy
10:53 PM 12.0 °F -1.3 °F -2.0 °F 53% 30.38 in 10.0 mi NE 10.4 mph - N/A   Scattered Clouds
11:53 PM 10.0 °F -1.9 °F -0.0 °F 64% 30.38 in 10.0 mi ENE 8.1 mph - N/A   Scattered Clouds